Regional Weather Roundup
Issued by NWS

Home | Current Version | Previous Version | Graphics & Text | Print | Product List | Glossary On
Versions: 1 2 3 4 5 6 7 8 9 10 11 12 13 14 15 16 17 18 19 20 21 22 23 24 25 26 27 28 29 30 31 32 33 34 35 36 37 38 39 40 41 42 43 44 45 46 47 48 49 50
953
ASUS44 KLIX 201405
RWRLA
LOUISIANA WEATHER ROUNDUP
NATIONAL WEATHER SERVICE NEW ORLEANS LA
800 AM CST SAT DEC 20 2014

NOTE: "FAIR" INDICATES FEW OR NO CLOUDS BELOW 12,000 FEET WITH NO
      SIGNIFICANT WEATHER AND/OR OBSTRUCTIONS TO VISIBILITY.
      SKY/WX - SKY CONDITION AND SIGNIFICANT WEATHER.
      TMP - AIR TEMPERATURE.    DP   - DEWPOINT TEMPERATURE.
      RH  - RELATIVE HUMIDITY.  PRES - PRESSURE.
      HX  - HEAT INDEX.         WCI  - WIND CHILL INDEX.

*  THESE STATIONS ARE NOT NWS OR FAA STATIONS AND ARE NOT UNDER
   NWS QUALITY CONTROL.

LAZ040-048-061>063-065-066-069-201500-
SOUTHEAST LOUISIANA

CITY           SKY/WX    TMP DP  RH WIND       PRES   REMARKS
N.O. AUDUBON     N/A     50  50 100 MISG        N/A
N.O. INTL ARPT CLOUDY    51  47  86 NE13      30.13R FOG
N.O. LAKEFRONT CLOUDY    52  47  83 NE16      30.14R
N.O. DOWNTOWN* CLOUDY    50  45  81 N8        30.13R
SLIDELL        CLOUDY    49  46  90 N10       30.13R
BATON ROUGE    CLOUDY    48  45  89 NE5       30.16R
BOOTHVILLE     CLOUDY    54  52  93 N12G23    30.10R
BELLE CHASSE   CLOUDY    50  48  93 NE10      30.12R
BOGALUSA*        N/A     48  45  87 NE7       30.17R
GALLIANO*      CLOUDY    52  51  96 MISG      30.12R
NEW ROADS*     CLOUDY    47  46  95 N7        30.17R
GONZALES*      CLOUDY    49  49 100 MISG      30.14R
HAMMOND*       NOT AVBL
HOUMA*         NOT AVBL
PORT FOURCHON* CLOUDY    52  50  93 NE17G25   30.12S

$$

LAZ041-044-053-054-201500-
SOUTHWEST LOUISIANA

CITY           SKY/WX    TMP DP  RH WIND       PRES   REMARKS
LAKE CHARLES   CLOUDY    49  48  97 NE13      30.16R
LAFAYETTE      CLOUDY    49  47  93 N10       30.16R FOG
PATTERSON      CLOUDY    48  46  93 NE10G16   30.14R
SALT POINT       N/A     53  49  86 N8        30.12R
NEW IBERIA     CLOUDY    50  47  89 N12       30.16R
CHENAULT AIRPK CLOUDY    48  46  93 N9G16     30.17R FOG

$$

LAZ027-028-201500-
CENTRAL LOUISIANA

CITY           SKY/WX    TMP DP  RH WIND       PRES   REMARKS
FORT POLK      CLOUDY    46  45  93 N9        30.18R FOG
ALEXANDRIA INT CLOUDY    47  44  90 N10       30.19R
ALEXANDRIA     CLOUDY    45  43  93 VRB3      30.21R

$$

LAZ001-002-201500-
NORTHWEST LOUISIANA

CITY           SKY/WX    TMP DP  RH WIND       PRES   REMARKS
SHREVEPORT     CLOUDY    45  43  93 NE6       30.24R
BARKSDALE AFB  NOT AVBL
DTN SHREVEPORT CLOUDY    43  40  89 NE6       30.25R

$$

LAZ014-016-201500-
NORTHEAST LOUISIANA

CITY           SKY/WX    TMP DP  RH WIND       PRES   REMARKS
MONROE         PTCLDY    41  40  96 N6        30.26R FOG
TALLULAH       CLOUDY    44  41  89 NE9       30.23R FOG

$$




USA.gov is the U.S. government's official web portal to all federal, state and local government web resources and services.